GW5732 Weather Reports


Display with metric or nautical units.
time (UTC)temp
F
wind
direction
speed
MPH
gust
MPH
rain 1hr
in
rain 24hr
in
rain mn
in
humidity
%
barometer
mb
20260504081800 61 284 1.0 1.0 0.00 0.00 0.00 74 1006.9
20260504081256 61 227 1.0 1.0 0.00 0.00 0.00 74 1006.6
20260504080753 60 291 1.0 2.0 0.00 0.00 0.00 75 1006.8
20260504080249 61 291 1.0 1.0 0.00 0.00 0.00 75 1006.8
20260504070217 64 245 6.0 7.0 0.00 0.00 0.00 68 1005.8
20260504060137 63 233 8.0 9.0 0.00 0.00 0.00 68 1005.9
20260504050605 63 214 7.0 9.0 0.00 0.00 0.00 65 1006.0
20260504045559 63 213 9.0 10.0 0.00 0.00 0.00 64 1006.0
20260504045054 63 206 10.0 13.0 0.00 0.00 0.00 64 1006.2
20260504044552 63 227 9.0 9.0 0.00 0.00 0.00 65 1006.3
20260504044049 63 206 10.0 11.0 0.00 0.00 0.00 64 1006.5
20260504043546 64 219 13.0 15.0 0.00 0.00 0.00 63 1006.4
20260504043043 63 216 11.0 11.0 0.00 0.00 0.00 63 1006.8
20260504042540 63 179 10.0 11.0 0.00 0.00 0.00 63 1006.5
20260504042037 63 209 9.0 10.0 0.00 0.00 0.00 64 1006.7
20260504041533 63 220 12.0 15.0 0.00 0.00 0.00 63 1006.5
20260504041029 63 207 8.0 10.0 0.00 0.00 0.00 63 1006.7
20260504040527 62 216 9.0 9.0 0.00 0.00 0.00 64 1006.7
20260504040024 62 198 10.0 11.0 0.00 0.00 0.00 63 1006.9
20260504035521 62 199 7.0 9.0 0.00 0.00 0.00 65 1006.9
20260504035017 61 205 10.0 11.0 0.00 0.00 0.00 65 1006.7
20260504034515 61 204 9.0 10.0 0.00 0.00 0.00 65 1006.7
20260504034011 61 196 7.0 8.0 0.00 0.00 0.00 65 1006.9
20260504033509 61 204 10.0 11.0 0.00 0.00 0.00 65 1006.9
20260504033006 61 204 8.0 9.0 0.00 0.00 0.00 65 1007.0
20260504032503 61 184 8.0 9.0 0.00 0.00 0.00 66 1007.0
20260504032000 61 189 6.0 7.0 0.00 0.00 0.00 66 1007.0
20260504031456 61 211 7.0 8.0 0.00 0.00 0.00 65 1007.0
20260504030953 61 188 6.0 7.0 0.00 0.00 0.00 64 1007.0
20260504030450 61 219 5.0 6.0 0.00 0.00 0.00 64 1007.3
20260504025946 62 200 4.0 6.0 0.00 0.00 0.00 64 1007.5
20260504025443 62 181 4.0 6.0 0.00 0.00 0.00 63 1007.1
20260504024940 62 201 6.0 8.0 0.00 0.00 0.00 63 1007.5
20260504024437 62 209 6.0 8.0 0.00 0.00 0.00 63 1007.1
20260504023934 62 195 6.0 7.0 0.00 0.00 0.00 62 1007.5
20260504023431 62 201 4.0 6.0 0.00 0.00 0.00 63 1007.2
20260504022926 62 206 5.0 7.0 0.00 0.00 0.00 62 1007.1
20260504022423 62 211 5.0 6.0 0.00 0.00 0.00 61 1007.1
20260504021920 62 193 8.0 9.0 0.00 0.00 0.00 61 1007.3
20260504021417 62 195 7.0 11.0 0.00 0.00 0.00 60 1007.1
20260504020914 62 197 5.0 7.0 0.00 0.00 0.00 61 1006.9
20260504020411 62 201 5.0 6.0 0.00 0.00 0.00 61 1007.1
20260504015907 63 200 9.0 10.0 0.00 0.00 0.00 61 1007.1
20260504015403 62 198 5.0 6.0 0.00 0.00 0.00 61 1007.1
20260504014859 62 220 5.0 7.0 0.00 0.00 0.00 61 1007.2
20260504014355 63 211 6.0 8.0 0.00 0.00 0.00 60 1007.1
20260504013853 63 211 6.0 7.0 0.00 0.00 0.00 60 1007.1
20260504013351 63 180 8.0 10.0 0.00 0.00 0.00 59 1007.2
20260504012847 63 213 5.0 6.0 0.00 0.00 0.00 59 1007.2
20260504012345 63 194 8.0 9.0 0.00 0.00 0.00 59 1007.3
20260504011842 63 201 7.0 8.0 0.00 0.00 0.00 60 1007.1
20260504011338 64 192 4.0 6.0 0.00 0.00 0.00 59 1007.3
20260504010835 64 204 6.0 8.0 0.00 0.00 0.00 58 1007.1
20260504010330 64 195 7.0 9.0 0.00 0.00 0.00 56 1007.2
20260504005827 64 202 9.0 9.0 0.00 0.00 0.00 56 1007.1
20260504005324 64 185 8.0 9.0 0.00 0.00 0.00 56 1007.3
20260504004822 65 209 8.0 9.0 0.00 0.00 0.00 56 1007.1
20260504004319 65 204 10.0 10.0 0.00 0.00 0.00 56 1007.2
20260504003815 65 196 9.0 10.0 0.00 0.00 0.00 54 1007.2
20260504003313 66 197 6.0 8.0 0.00 0.00 0.00 56 1007.3
20260504002809 66 205 8.0 10.0 0.00 0.00 0.00 54 1007.5
20260504002306 66 195 7.0 8.0 0.00 0.00 0.00 53 1007.5
20260504001804 67 192 8.0 10.0 0.00 0.00 0.00 51 1007.6
20260504001300 67 202 9.0 10.0 0.00 0.00 0.00 52 1007.4
20260504000757 67 198 6.0 7.0 0.00 0.00 0.00 51 1007.4
20260504000254 68 207 9.0 10.0 0.00 0.00 0.00 51 1007.3
20260503235752 68 197 9.0 13.0 0.00 0.00 0.00 51 1007.2
20260503235249 68 210 5.0 7.0 0.00 0.00 0.00 51 1007.1
20260503234747 68 202 10.0 13.0 0.00 0.00 0.00 49 1007.4
20260503234245 68 213 12.0 14.0 0.00 0.00 0.00 47 1007.3
20260503233742 68 223 10.0 10.0 0.00 0.00 0.00 49 1007.5
20260503233237 68 209 13.0 16.0 0.00 0.00 0.00 48 1007.5
20260503232734 68 170 10.0 11.0 0.00 0.00 0.00 49 1007.3
20260503232232 69 197 9.0 11.0 0.00 0.00 0.00 48 1007.5
20260503231730 69 226 14.0 16.0 0.00 0.00 0.00 46 1007.2
20260503231226 69 207 13.0 16.0 0.00 0.00 0.00 47 1007.5
20260503230722 69 168 15.0 21.0 0.00 0.00 0.00 46 1007.4
20260503230220 69 194 15.0 17.0 0.00 0.00 0.00 47 1007.4
20260503225717 69 194 14.0 17.0 0.00 0.00 0.00 45 1007.4
20260503225217 69 194 14.0 17.0 0.00 0.00 0.00 47 1007.4
20260503224715 69 210 9.0 11.0 0.00 0.00 0.00 50 1007.4
20260503224212 69 190 13.0 16.0 0.00 0.00 0.00 48 1007.4
20260503223710 69 193 10.0 11.0 0.00 0.00 0.00 47 1007.6
20260503223207 69 200 15.0 18.0 0.00 0.00 0.00 49 1007.6
20260503222703 69 194 15.0 18.0 0.00 0.00 0.00 48 1007.7
20260503222201 69 199 10.0 11.0 0.00 0.00 0.00 48 1007.8
20260503221700 69 198 15.0 19.0 0.00 0.00 0.00 48 1007.7
20260503221156 69 178 12.0 18.0 0.00 0.00 0.00 47 1007.7
20260503220653 69 201 17.0 21.0 0.00 0.00 0.00 46 1007.8
20260503220149 69 193 22.0 24.0 0.00 0.00 0.00 45 1007.7
20260503215647 69 194 12.0 15.0 0.00 0.00 0.00 48 1007.9
20260503215143 69 208 13.0 18.0 0.00 0.00 0.00 48 1007.8
20260503214643 69 211 20.0 22.0 0.00 0.00 0.00 46 1008.1
20260503214138 69 201 17.0 22.0 0.00 0.00 0.00 46 1007.9
20260503213637 68 175 17.0 19.0 0.00 0.00 0.00 49 1008.1
20260503213133 68 158 13.0 15.0 0.00 0.00 0.00 45 1008.2
20260503212631 68 215 18.0 21.0 0.00 0.00 0.00 49 1008.3
20260503212128 69 217 16.0 19.0 0.00 0.00 0.00 47 1008.4
20260503211626 68 180 12.0 14.0 0.00 0.00 0.00 45 1008.5
20260503211121 69 199 14.0 17.0 0.00 0.00 0.00 45 1008.6
20260503210618 69 191 10.0 14.0 0.00 0.00 0.00 48 1008.8
20260503210115 68 178 14.0 16.0 0.00 0.00 0.00 48 1009.0
20260503205610 68 207 14.0 17.0 0.00 0.00 0.00 49 1009.0
20260503205107 68 187 17.0 21.0 0.00 0.00 0.00 48 1009.2
20260503204604 68 205 17.0 18.0 0.00 0.00 0.00 49 1009.2
20260503204101 68 186 16.0 19.0 0.00 0.00 0.00 49 1009.7
20260503203558 68 196 15.0 22.0 0.00 0.00 0.00 49 1009.5
20260503203055 68 176 16.0 19.0 0.00 0.00 0.00 48 1009.7
20260503202553 68 200 17.0 19.0 0.00 0.00 0.00 49 1010.2
20260503202051 67 199 15.0 17.0 0.00 0.00 0.00 51 1010.0
20260503201549 68 194 13.0 15.0 0.00 0.00 0.00 50 1010.1
20260503201046 67 209 17.0 21.0 0.00 0.00 0.00 50 1010.1
20260503200541 67 217 15.0 17.0 0.00 0.00 0.00 50 1010.4
20260503200038 67 178 11.0 14.0 0.00 0.00 0.00 52 1010.7
20260503195536 67 201 15.0 16.0 0.00 0.00 0.00 47 1010.7
20260503195032 67 210 14.0 16.0 0.00 0.00 0.00 53 1011.1
20260503194530 67 203 10.0 13.0 0.00 0.00 0.00 52 1011.3
20260503194029 67 201 19.0 24.0 0.00 0.00 0.00 50 1011.2
20260503193527 66 206 12.0 15.0 0.00 0.00 0.00 51 1011.3
20260503193021 66 195 12.0 19.0 0.00 0.00 0.00 51 1011.6
20260503192518 66 184 16.0 22.0 0.00 0.00 0.00 52 1011.8
20260503192014 66 182 14.0 15.0 0.00 0.00 0.00 49 1012.0
20260503191511 66 202 13.0 15.0 0.00 0.00 0.00 53 1012.1
20260503191008 65 221 20.0 23.0 0.00 0.00 0.00 49 1012.3
20260503190504 65 233 14.0 16.0 0.00 0.00 0.00 52 1012.3
20260503190001 66 235 9.0 11.0 0.00 0.00 0.00 55 1012.4
20260503185458 65 197 14.0 17.0 0.00 0.00 0.00 52 1012.5
20260503184957 65 203 12.0 14.0 0.00 0.00 0.00 50 1012.6
20260503184454 65 208 12.0 14.0 0.00 0.00 0.00 50 1012.7
20260503183950 65 213 20.0 22.0 0.00 0.00 0.00 50 1012.8
20260503183447 65 213 14.0 17.0 0.00 0.00 0.00 53 1013.1
20260503182944 65 202 11.0 14.0 0.00 0.00 0.00 54 1013.2
20260503182443 65 195 14.0 17.0 0.00 0.00 0.00 54 1013.2
20260503181940 64 208 11.0 15.0 0.00 0.00 0.00 54 1013.3
20260503181437 64 189 17.0 19.0 0.00 0.00 0.00 53 1013.4
20260503180933 64 188 9.0 11.0 0.00 0.00 0.00 56 1013.7
20260503180432 63 219 12.0 15.0 0.00 0.00 0.00 55 1013.6
20260503175928 64 227 10.0 11.0 0.00 0.00 0.00 55 1013.8
20260503175426 64 189 11.0 14.0 0.00 0.00 0.00 53 1014.1
20260503174921 64 220 16.0 18.0 0.00 0.00 0.00 53 1014.1
20260503174420 63 204 11.0 13.0 0.00 0.00 0.00 53 1014.3
20260503173920 63 193 20.0 25.0 0.00 0.00 0.00 53 1014.5
20260503173416 63 198 15.0 17.0 0.00 0.00 0.00 55 1014.5
20260503172913 62 194 23.0 26.0 0.00 0.00 0.00 53 1014.4
20260503172411 63 204 10.0 13.0 0.00 0.00 0.00 56 1014.5
20260503171907 62 199 12.0 15.0 0.00 0.00 0.00 55 1014.5
20260503171404 61 207 18.0 21.0 0.00 0.00 0.00 54 1014.7
20260503170901 62 191 10.0 15.0 0.00 0.00 0.00 57 1014.6
20260503170357 61 205 20.0 23.0 0.00 0.00 0.00 54 1014.7
20260503150749 57 200 12.0 14.0 0.00 0.00 0.00 66 1016.2
20260503150246 57 203 12.0 13.0 0.00 0.00 0.00 65 1016.3
20260503140210 54 188 9.0 10.0 0.00 0.00 0.00 73 1016.3
20260503131140 50 202 10.0 11.0 0.00 0.00 0.00 80 1016.4
20260503130637 50 194 6.0 7.0 0.00 0.00 0.00 81 1016.2
20260503130135 50 199 9.0 11.0 0.00 0.00 0.00 81 1016.1
20260503110527 43 212 4.0 4.0 0.00 0.00 0.00 92 1016.0